Regional Weather Roundup
Issued by NWS

Home | Current Version | Previous Version | Text Only | Print | Product List | Glossary On
Versions: 1 2 3 4 5 6 7 8 9 10 11 12 13 14 15 16 17 18 19 20 21 22 23 24 25 26 27 28 29 30 31 32 33 34 35 36 37 38 39 40 41 42 43 44 45 46 47 48 49 50
000
ASUS44 KLUB 281610
RWRTX
WEST TEXAS WEATHER ROUNDUP
NATIONAL WEATHER SERVICE LUBBOCK TX
1100 AM CDT SUN AUG 28 2016

NOTE: "FAIR" INDICATES FEW OR NO CLOUDS BELOW 12,000 FEET WITH NO
SIGNIFICANT WEATHER AND/OR OBSTRUCTIONS TO VISIBILITY.

TXZ004-006>008-010-012-014-016-OKZ002-281700-
TEXAS PANHANDLE/OKLAHOMA PANHANDLE

CITY           SKY/WX    TMP DP  RH WIND       PRES   REMARKS
AMARILLO       MOSUNNY   73  59  61 E6        30.17S
BORGER         SUNNY     77  64  64 W3        30.15S
CANADIAN       SUNNY     81  69  66 S9        30.11S
DALHART        MOSUNNY   78  57  48 SW15      30.17F
DUMAS          MOSUNNY   72  62  72 SW10      30.17S
GUYMON         MOSUNNY   74  64  71 S10       30.14S
HEREFORD       CLOUDY    71  62  73 E5        30.19R
PAMPA          MOSUNNY   77  66  68 S8        30.17S
PERRYTON       MOSUNNY   77  68  73 S6        30.14S
$$

TXZ026-029-035-045-048-281700-
SOUTHERN PANHANDLE/SOUTH PLAINS/ROLLING PLAINS

CITY           SKY/WX    TMP DP  RH WIND       PRES   REMARKS
CHILDRESS      SUNNY     80  69  69 SE7       30.10F
SEMINOLE       SUNNY     77  61  57 E5        30.17F
LUBBOCK        CLOUDY    76  59  55 S6        30.15F
PLAINVIEW      CLOUDY    75  60  59 SE5       30.15S
SNYDER           N/A     78  67  67 CALM      30.14S
$$

TXZ052-054-060>062-072-078-127-140-154-169-281700-
PERMIAN BASIN/CONCHO VALLEY/BIG COUNTRY/EDWARDS PLATEAU

CITY           SKY/WX    TMP DP  RH WIND       PRES   REMARKS
ABILENE        PTSUNNY   83  72  69 W3        30.11S
BIG SPRING     PTSUNNY   78  67  70 CALM      30.17S
BROWNWOOD      SUNNY     84  70  61 E5        30.09F
JUNCTION       MOSUNNY   83  70  64 CALM      30.10R
MIDLAND        PTSUNNY   79  66  64 E7        30.14S
ODESSA         CLOUDY    78  66  66 S6        30.15S
SAN ANGELO     SUNNY     83  70  64 S7        30.10F
SONORA         MOSUNNY   81  70  69 S10       30.15S
SWEETWATER     SUNNY     81  66  59 SW3       30.16S
WINK           SUNNY     80  64  58 SE7       30.10S
$$

TXZ055-058-074-075-080-082-281700-
FAR WEST/SOUTHWEST MOUNTAINS/TRANS PECOS

CITY           SKY/WX    TMP DP  RH WIND       PRES   REMARKS
ALPINE         SUNNY     75  62  62 SE3       30.25S
DRYDEN           N/A     78  70  76 SE6       30.07F
EL PASO        MOSUNNY   75  61  61 NE6       30.16F
FORT STOCKTON  SUNNY     82  64  54 W6        30.12S
MARFA          SUNNY    N/A N/A N/A NE5         N/A
PECOS          SUNNY     77  64  65 W5        30.10S
PRESIDIO       FAIR      78  64  61 SE3       30.11S
$$

TXZ014-016-019-021>030-083-281700
TEXAS TECH WEST TEXAS MESONET/TEXAS PANHANDLE/NORTHERN SOUTH PLAINS

CITY           SKY/WX    TMP DP  RH WIND       PRES   REMARKS
ABERNATHY 5ENE   N/A     76  61  60 SE3       30.19S
AMARILLO 9NNE    N/A     75  59  58 CALM      30.16F
AMARILLO 7SSE    N/A     71  61  70 E2        30.19S
AMHERST 1NE      N/A     70  62  76 SE7       30.18S
BOOTLEG 11WNW    N/A     74  59  58 SW20      30.22S
CANADIAN 6E      N/A     82  69  63 SE10      30.11R
CAPROCK CYN SP   N/A     77  67  71 S2        30.15F
CHILDRESS 2NNE   N/A     80  69  68 E8        30.12F
CLARENDON 2WSW   N/A     76  66  69 SW6       30.16S
CLAUDE 12SW      N/A     75  63  65 SE5       30.18S
DIMMITT 2NE      N/A     70  60  70 S5        30.19S
FLOYDADA 2NNE    N/A     74  61  62 S6        30.17S
FRIONA 2NE       N/A     74  61  63 S6        30.20S
GOODLETT 3W      N/A     81  69  65 E7        30.10F
HART 3N          N/A     73  61  66 S8        30.19R
HEREFORD 2NW     N/A     72  58  62 SE3       30.21S
MCLEAN 1E        N/A     79  66  64 S9        30.15R
MEMPHIS 1NE      N/A     79  70  72 SE8       30.13S
MULESHOE 2SSW    N/A     69  62  78 SW1       30.19S
OLTON 6S         N/A     74  58  56 S6        30.18S
PALO DURO SP     N/A     76  60  55 S3        30.19S
PAMPA 2E         N/A     75  66  75 S9        30.17S
PLAINVIEW 1S     N/A     76  60  57 S7        30.18S
SILVERTON 7ESE   N/A     76  65  66 SE3       30.15F
TULIA 2ENE       N/A     75  62  64 SE6       30.19S
TURKEY 2WSW      N/A     78  69  73 E5        30.14S
UMBARGER 3NNE    N/A     69  62  78 NE3       30.20R
$$

TXZ033>036-039>041-045>048-281700
TEXAS TECH WEST TEXAS MESONET/SOUTH PLAINS

CITY           SKY/WX    TMP DP  RH WIND       PRES   REMARKS
AIKEN 3WSW       N/A     73  64  73 SE6       30.19S
ANTON 6SSW       N/A     77  64  63 S8        30.17F
BROWNFIELD 2S    N/A     77  59  54 E6        30.18S
DENVR CTY 7WNW   N/A     78  60  54 SE12      30.18F
GAIL 2ESE        N/A     79  65  61 NE6       30.14F
LAMESA 2SE       N/A     77  63  60 E6        30.17S
LEVELLAND 4S     N/A     78  64  61 SE8       30.18F
LUBBOCK 3WNW     N/A     78  56  46 SE3       30.17S
MORTON 1ENE      N/A     77  63  61 S10       30.19S
ODONNELL 1N      N/A     77  58  51 E6        30.16F
PLAINS 3N        N/A     78  61  55 SE16      30.19S
RALLS 1SE        N/A     71  63  75 N6        30.17F
REESE CENTER     N/A     78  57  47 SE5       30.18S
SEAGRAVES 1SW    N/A     78  60  54 SE5       30.18S
SEMINOLE 2NNE    N/A     78  60  54 SE7G14    30.18R
SLATON 2NE       N/A     74  63  70 SE2       30.16F
SNYDER 3E        N/A     81  67  61 SW3       30.14S
SUNDOWN 8SW      N/A     79  62  55 S13       30.18S
TAHOKA 3NNE      N/A     78  58  51 NE1       30.16F
WOLFFORTH 6SSW   N/A     77  60  55 SE6       30.17F
$$

TXZ031-032-036>038-042>044-281700-
TEXAS TECH WEST TEXAS MESONET/ROLLING PLAINS

CITY           SKY/WX    TMP DP  RH WIND       PRES   REMARKS
ASPERMONT 3NE    N/A     82  67  61 W1        30.12S
FLUVANNA 3WNW    N/A     80  63  56 N1        30.15F
GRAHAM 5SSW      N/A     76  65  70 SE2       30.15F
GUTHRIE 10WSW    N/A     80  67  65 SW3       30.12S
HASKELL 1NW      N/A     82  67  59 S6        30.11S
JAYTON 1SSE      N/A     79  68  69 S2        30.12S
KNOX CITY 3NW    N/A     84  68  58 S3        30.11S
LK A HENRY 1NW   N/A     81  66  59 E5        30.13F
NORTHFIELD 1S    N/A     81  70  70 E6        30.13S
ODELL 4ENE       N/A     82  72  69 S7        30.11S
PADUCAH 10SW     N/A     80  69  70 SE7       30.12F
POST 1NE         N/A     77  63  61 SE2       30.14F
RRING SPRGS 3N   N/A     79  69  69 SE5       30.15S
SEYMOUR 3NW      N/A     84  71  64 S6        30.10S
SPUR 1W          N/A     79  66  65 NE3       30.13F
WHITE RVR 6NE    N/A     80  58  47 NE5       30.14F
$$

TXZ052-054-060>062-072-078-127-140-154-169-281700-
TEXAS TECH WEST TEXAS MESONET/PERMIAN BASIN/
CONCHO VALLEY/BIG COUNTRY/EDWARDS PLATEAU

CITY           SKY/WX    TMP DP  RH WIND       PRES   REMARKS
COYANOSA 2N      N/A     82  64  55 SW6       30.11R
JUNCTION 1SSW    N/A     82  71  69 S5        30.11S
MERTZON 3NNE     N/A     82  70  67 S7        30.13S
SAN ANGELO 7NW   N/A     83  66  55 SE8       30.12S
STRLNG CT 4WSW   N/A     80  68  67 SE5       30.15S
ST LAWRNCE 5SW   N/A     81  65  59 S8        30.14S
SWEETWATR 11SW   N/A     80  68  68 W7        30.16S
WALL 1E          N/A     83  68  61 S1        30.12F
$$

TXZ055-058-074-075-080-082-281700-
TEXAS TECH WEST TEXAS MESONET/FAR WEST/SOUTHWEST MOUNTAINS/TRANS PECOS

CITY           SKY/WX    TMP DP  RH WIND       PRES   REMARKS
GUADLPE MTN NP   N/A     66  59  77 E7        30.30R
$$




USA.gov is the U.S. government's official web portal to all federal, state and local government web resources and services.